Location: Los Ranchitos
(37.9930°N, 122.5425°W)
Time: 08:38:42
(UTC+00:00)

Cosmos 1437 - Pass Details

Date: 21 September 2020
Orbit: 365 x 369 km, 81.2° (Epoch: 28 October)

Event Time Altitude Azimuth Distance (km) Brightness Sun altitude
Rises 02:55:55 0° 349° (N) 2,250 6.7 -10.0°
Reaches altitude 10° 02:57:55 10° 348° (NNW) 1,393 5.7 -10.4°
Maximum altitude 03:00:55 77° 263° (W) 391 2.7 -11.0°
Drops below altitude 10° 03:03:54 10° 176° (S) 1,379 5.2 -11.6°
Sets 03:05:53 0° 175° (S) 2,223 6.3 -11.9°
